Location: Newark
(20.0000°S, 47.0000°E)
Time: 01:32:05
(UTC+00:00)

Envisat - Pass Details

Date: 24 June 2019
Orbit: 764 x 766 km, 98.1° (Epoch: 19 August)

Event Time Altitude Azimuth Distance (km) Brightness Sun altitude
Exits shadow 15:14:28 13° 136° (SE) 2,080 4.7 -12.2°
Maximum altitude 15:18:10 29° 81° (E) 1,373 3.8 -13.0°
Drops below altitude 10° 15:22:31 10° 21° (NNE) 2,292 5.5 -14.0°
Sets 15:25:04 0° 10° (N) 3,211 6.4 -14.5°
